星链-30109 (STARLINK-30109 )

导读

STARLINK-30109是美国太空探索技术公司(SpaceX)研制运营的星链(Starlink)卫星,属于Starlink v2.0 mini平台,于2023年4月发射进入近地轨道。它目前运行在倾角约43°的近地轨道,近地点高度约388千米,远地点约434千米,属于SpaceX星链巨型低轨卫星互联网星座,旨在提供全球宽带互联网接入服务,目前仍在正常工作。

基本信息
目录编号:
56298
目录名称:
STARLINK-30109
国际标识:
2023-056N
轨道中心:
EARTH
卫星名称:
星链-30109
卫星全名:
星链-30109 (STARLINK-30109 )
卫星状态:
在轨 (已飞行1234 天)
发射日期:
2023-04-19 UTC
国别 :
美国 (US)
星等 :
--
轨道信息
数据来源 国际轨道数据 AOE轨道数据
星历时间 2026-09-04T11:24:59+0800
15小时前
查看轨道信息
2026-09-04T02:00:00+0800
1天前
查看轨道信息
半长轴 6861.201km 6861.14km
偏心率 0.0001165 0.0000463
轨道倾角 43.003° 43.004°
近地点辐角 271.398° 294.367°
升交点赤经 280.901° 283.122°
平近点角 88.674° 65.538°
近地点 482.264km 482.685km
远地点 483.864km 483.321km
周期 94.267分钟 94.266分钟
每日圈数 15.275751 15.275954
详细信息
固有亮度:
5
最大亮度:
0.3
卫星平台:
Starlink v2.0 mini
覆盖范围:
全球
运营商:
太空探索技术公司
运营商所在国:
美国
制造商(研发单位):
太空探索技术公司
制造商所在国:
美国
使用方式:
暂无
卫星简介
星链(Starlink)计划是由太空探索技术公司(SpaceX)提出的一个巨型低轨卫星互联网星座项目,计划在2019年至2024年间在太空搭建由约1.2万颗卫星组成的“星链”网络,其中1584颗将部署在地球上空550千米处的近地轨道,并从2020年开始工作。该卫星仍在工作。
2D轨道图
3D轨道图
轨道高度分析图
轨道倾角分析图
轨道综合分析图
查看轨道综合分析图
交会数据列表
事件ID 空间交会对象 最接近时刻(TCA) 交会距离 交会风险概率(CRP) 交会风险指数(CRI) 操作
CDM_260906-055105-629806-681621
2026-09-06T
05:51:27+0000
0.678 km
远距离
6.046888E-5 中风险 0.71
CDM_260907-003305-629805-848221
2026-09-07T
00:33:57+0000
0.771 km
远距离
4.863412E-5 中风险 0.69
CDM_260906-173705-629806-681621
2026-09-06T
17:37:36+0000
0.901 km
远距离
2.434133E-5 中风险 0.63
CDM_260906-041705-629806-681621
2026-09-06T
04:17:18+0000
1.591 km
极远距离
3.57488E-6 低风险 0.46
CDM_260906-225905-629805-848221
2026-09-06T
22:59:48+0000
1.904 km
极远距离
2.524888E-6 低风险 0.43
CDM_260907-020805-629805-848221
2026-09-07T
02:08:06+0000
1.973 km
极远距离
2.30289E-6 低风险 0.42
CDM_260906-191105-629806-681621
2026-09-06T
19:11:45+0000
2.730 km
极远距离
1.039522E-6 低风险 0.35
CDM_260906-160305-629806-681621
2026-09-06T
16:03:27+0000
2.819 km
极远距离
9.954845E-7 极低风险 0.35
CDM_260906-072505-629806-681621
2026-09-06T
07:25:36+0000
2.896 km
极远距离
9.62779E-7 极低风险 0.35